星链-30505 (STARLINK-30505 )

导读

STARLINK-30505是美国SpaceX公司星链星座的一员,于2023年9月30日发射入轨。它属于星链第二代低轨卫星,旨在为全球偏远及基础设施匮乏地区提供高速、低延迟宽带互联网服务。该卫星采用霍尔推进器,具备自主避撞能力,寿命结束后会自动离轨坠入大气层焚毁,目前已在低地球轨道为全球网络覆盖提供支持。

Basic Information
目录编号:
57972
目录名称:
STARLINK-30505
国际标识:
2023-151J
轨道中心:
EARTH
卫星名称:
星链-30505
卫星全名:
星链-30505 (STARLINK-30505 )
卫星状态:
在轨 (已飞行1077 天)
发射日期:
2023-09-30 UTC
国别 :
美国 (US)
星等 :
--
This satellite is enrolled in the Space Conjunction Data Service (SCDS) and the current flight risk assessment level is: No High Risk
Orbit Information
数据来源 国际轨道数据
星历时间: 2026-09-11T15:46:49+0800
8小时前
查看轨道信息
半长轴: 6861.171km
偏心率: 0.000246
轨道倾角: 43.003°
近地点辐角 272.639°
升交点赤经 7.893°
平近点角 87.418°
近地点: 481.346km
远地点: 484.722km
周期: 94.266分钟
每日圈数: 15.275852
Detailed Information
固有亮度:
5
最大亮度:
0.3
卫星平台:
Starlink v2.0 mini
覆盖范围:
全球
运营商:
太空探索技术公司
运营商所在国:
美国
制造商(研发单位):
太空探索技术公司
制造商所在国:
美国
使用方式:
暂无
Satellite Introduction
星链(Starlink)计划是由太空探索技术公司(SpaceX)提出的一个巨型低轨卫星互联网星座项目,计划在2019年至2024年间在太空搭建由约1.2万颗卫星组成的“星链”网络,其中1584颗将部署在地球上空550千米处的近地轨道,并从2020年开始工作。该卫星仍在工作。
2D Orbit Map
3D Orbit Map
Orbit Altitude Analysis Chart
Orbit Inclination Analysis Chart
Orbit Comprehensive Analysis Chart
View Comprehensive Chart
Conjunction Data List
Event ID Objects TCA Miss Dist (km) Collision Risk Probability Collision Risk Index (CRI) Action
CDM_260913-195305-603705-797221
2026-09-13T
19:53:29+0000
1.093 km
极远距离
9.014935E-6 低风险 0.54
CDM_260911-164505-765505-797222
2026-09-11T
16:45:06+0000
1.380 km
极远距离
7.917086E-6 低风险 0.53
CDM_260913-100105-797206-710921
2026-09-13T
10:01:55+0000
1.418 km
极远距离
6.321491E-6 低风险 0.51
CDM_260913-150405-537505-797221
2026-09-13T
15:04:14+0000
1.289 km
极远距离
2.424779E-6 低风险 0.43
CDM_260913-124305-537505-797221
2026-09-13T
12:43:00+0000
1.295 km
极远距离
2.388673E-6 低风险 0.43
CDM_260913-082705-797206-710921
2026-09-13T
08:27:46+0000
1.990 km
极远距离
2.311967E-6 低风险 0.42
CDM_260913-141705-537505-797221
2026-09-13T
14:17:09+0000
1.614 km
极远距离
1.242298E-6 低风险 0.37
Miss Distance Evolution Trend with All Objects
Collision Probability Evolution Trend with All Objects